Paynesville, MN

8:18 PM CDT on August 31, 2016 (GMT -0500)
Paynesville

Weather History for KPEX - April, 2014

Change the Weather History Date:

Monday, April 14, 2014

  Actual Average (KLJF) Record (KLJF)
Temperature  
Mean Temperature 27 °F -  
Max Temperature 33 °F 54 °F 89 °F (2003)
Min Temperature 21 °F 33 °F 19 °F (2008)
Degree Days  
Heating Degree Days 38    
Moisture  
Dew Point 11 °F    
Average Humidity 50    
Maximum Humidity 64    
Minimum Humidity 34    
Precipitation  
Precipitation 0.00 in - - ()
Sea Level Pressure  
Sea Level Pressure 30.09 in    
Wind  
Wind Speed 16 mph (NNW)    
Max Wind Speed 22 mph    
Max Gust Speed 29 mph    
Visibility 10 miles    
Events      
Averages and records for this station are not official NWS values.
T = Trace of Precipitation, MM = Missing Value Source: NWS Daily Summary

Daily Weather History Graph

Daily Weather History Graph

Search for Another Location

Airport or City:

Trip Planner

Search our weather history database for the weather conditions in past years. The results will help you decide how hot, cold, wet, or windy it might be!

Date:

Astronomy

Apr. 14, 2014 Rise Set
Actual Time 6:35 AM CDT 8:03 PM CDT
Civil Twilight 6:04 AM CDT 8:34 PM CDT
Nautical Twilight 5:27 AM CDT 9:12 PM CDT
Astronomical Twilight 4:47 AM CDT 9:52 PM CDT
Moon 7:43 PM CDT (4/14) 6:10 AM CDT (4/14)
Length of Visible Light 14h 30m
Length of Day
13h 28m
Full, 100% of the Moon is Illuminated
Apr 14
Full
Apr 15
Full
Apr 22
Last Quarter
Apr 29
New
May 6
First Quarter

Hourly Weather History & Observations

Time (CDT) Temp. Windchill Dew Point Humidity Pressure Visibility Wind Dir Wind Speed Gust Speed Precip Events Conditions
12:12 AM 30.2 °F 18.1 °F 19.4 °F 64% 30.02 in 10.0 mi NNW 18.4 mph 21.9 mph N/A   Clear
12:32 AM 30.2 °F 18.9 °F 19.2 °F 64% 30.02 in 10.0 mi NNW 16.1 mph 23.0 mph N/A   Scattered Clouds
12:52 AM 30.2 °F 18.5 °F 18.3 °F 61% 30.03 in 10.0 mi NNW 17.3 mph 28.8 mph N/A   Scattered Clouds
1:12 AM 29.5 °F 17.2 °F 16.0 °F 57% 30.03 in 10.0 mi NNW 18.4 mph 27.6 mph N/A   Scattered Clouds
1:32 AM 29.1 °F 16.7 °F 15.4 °F 57% 30.03 in 10.0 mi NNW 18.4 mph 27.6 mph N/A   Clear
1:52 AM 28.8 °F 16.2 °F 15.4 °F 58% 30.02 in 10.0 mi NNW 18.4 mph 26.5 mph N/A   Clear
2:12 AM 28.2 °F 16.3 °F 16.0 °F 60% 30.02 in 10.0 mi NNW 16.1 mph 24.2 mph N/A   Clear
2:31 AM 27.7 °F 15.6 °F 16.2 °F 62% 30.02 in 10.0 mi North 16.1 mph 25.3 mph N/A   Clear
2:52 AM 27.1 °F 14.9 °F 14.7 °F 60% 30.01 in 10.0 mi NNW 16.1 mph 24.2 mph N/A   Clear
3:11 AM 26.6 °F 14.7 °F 14.4 °F 60% 30.02 in 10.0 mi NNW 15.0 mph 25.3 mph N/A   Clear
3:32 AM 26.2 °F 13.4 °F 14.0 °F 60% 30.02 in 10.0 mi NNW 17.3 mph 23.0 mph N/A   Clear
3:52 AM 25.7 °F 14.6 °F 14.0 °F 61% 30.02 in 10.0 mi NNW 12.7 mph 21.9 mph N/A   Clear
4:12 AM 25.5 °F 12.9 °F 13.1 °F 59% 30.02 in 10.0 mi NNW 16.1 mph 24.2 mph N/A   Clear
4:32 AM 25.0 °F 12.6 °F 13.1 °F 61% 30.02 in 10.0 mi NNW 15.0 mph 25.3 mph N/A   Clear
4:52 AM 24.8 °F 13.4 °F 12.6 °F 60% 30.03 in 10.0 mi North 12.7 mph 25.3 mph N/A   Clear
5:12 AM 24.6 °F 14.4 °F 12.9 °F 61% 30.03 in 10.0 mi North 10.4 mph 21.9 mph N/A   Clear
5:32 AM 24.3 °F 12.7 °F 13.1 °F 63% 30.03 in 10.0 mi NNW 12.7 mph 25.3 mph N/A   Clear
5:51 AM 23.7 °F 10.5 °F 12.6 °F 62% 30.05 in 10.0 mi NNW 16.1 mph 23.0 mph N/A   Clear
6:12 AM 23.5 °F 11.3 °F 12.2 °F 62% 30.06 in 10.0 mi NNW 13.8 mph 26.5 mph N/A   Clear
6:32 AM 23.4 °F 9.6 °F 12.7 °F 64% 30.06 in 10.0 mi NNW 17.3 mph 24.2 mph N/A   Clear
7:12 AM 23.7 °F 11.0 °F 12.6 °F 62% 30.09 in 10.0 mi NNW 15.0 mph 23.0 mph N/A   Clear
7:32 AM 23.4 °F 11.1 °F 12.0 °F 62% 30.09 in 10.0 mi NNW 13.8 mph 21.9 mph N/A   Clear
7:52 AM 23.5 °F 13.0 °F 12.6 °F 63% 30.11 in 10.0 mi NNW 10.4 mph 18.4 mph N/A   Clear
8:12 AM 23.5 °F 12.4 °F 12.2 °F 62% 30.11 in 10.0 mi NNW 11.5 mph - N/A   Clear
8:32 AM 23.9 °F 11.2 °F 12.0 °F 61% 30.11 in 10.0 mi NNW 15.0 mph - N/A   Clear
8:52 AM 25.2 °F 12.0 °F 11.3 °F 56% 30.11 in 10.0 mi North 17.3 mph 20.7 mph N/A   Clear
9:12 AM 26.2 °F 15.2 °F 11.1 °F 53% 30.11 in 10.0 mi NNW 12.7 mph 23.0 mph N/A   Clear
9:32 AM 26.6 °F 15.7 °F 10.0 °F 50% 30.12 in 10.0 mi NNW 12.7 mph - N/A   Clear
9:51 AM 27.5 °F 16.3 °F 9.0 °F 46% 30.11 in 10.0 mi North 13.8 mph 20.7 mph N/A   Clear
10:12 AM 27.9 °F 15.5 °F 8.1 °F 43% 30.12 in 10.0 mi NNW 17.3 mph 24.2 mph N/A   Clear
10:32 AM 28.4 °F 17.0 °F 8.1 °F 42% 30.12 in 10.0 mi NNW 15.0 mph 23.0 mph N/A   Clear
10:52 AM 29.1 °F 17.1 °F 7.5 °F 40% 30.12 in 10.0 mi NNW 17.3 mph 23.0 mph N/A   Clear
11:12 AM 29.5 °F 17.6 °F 6.3 °F 37% 30.12 in 10.0 mi North 17.3 mph 24.2 mph N/A   Clear
11:31 AM 30.6 °F 19.0 °F 7.7 °F 38% 30.12 in 10.0 mi North 17.3 mph 23.0 mph N/A   Clear
11:52 AM 31.3 °F 19.5 °F 7.9 °F 37% 30.12 in 10.0 mi North 18.4 mph 25.3 mph N/A   Scattered Clouds
12:12 PM 31.1 °F 18.6 °F 6.6 °F 36% 30.12 in 10.0 mi NNW 20.7 mph 28.8 mph N/A   Scattered Clouds
12:32 PM 31.8 °F 19.9 °F 6.4 °F 34% 30.12 in 10.0 mi NNW 19.6 mph 25.3 mph N/A   Scattered Clouds
12:52 PM 32.0 °F 22.5 °F 7.3 °F 36% 30.11 in 10.0 mi NW 12.7 mph 21.9 mph N/A   Scattered Clouds
1:12 PM 31.3 °F 21.6 °F 6.8 °F 36% 30.11 in 10.0 mi North 12.7 mph 21.9 mph N/A   Mostly Cloudy
1:32 PM 32.7 °F 22.5 °F 8.8 °F 37% 30.11 in 10.0 mi NNW 15.0 mph 23.0 mph N/A   Mostly Cloudy
1:52 PM 33.1 °F 21.5 °F 8.4 °F 36% 30.11 in 10.0 mi NW 19.6 mph 25.3 mph N/A   Mostly Cloudy
2:12 PM 32.0 °F 23.0 °F 7.9 °F 36% 30.11 in 10.0 mi NNW 11.5 mph - N/A   Overcast
2:32 PM 33.1 °F 22.6 °F 7.3 °F 34% 30.11 in 10.0 mi NW 16.1 mph 26.5 mph N/A   Overcast
2:52 PM 32.2 °F 21.8 °F 7.2 °F 35% 30.11 in 10.0 mi NNW 15.0 mph 28.8 mph N/A   Overcast
3:12 PM 33.1 °F 21.5 °F 8.2 °F 35% 30.10 in 10.0 mi NW 19.6 mph 25.3 mph N/A   Overcast
3:32 PM 32.5 °F 20.8 °F 9.1 °F 38% 30.10 in 10.0 mi NW 19.6 mph 27.6 mph N/A   Overcast
3:52 PM 32.5 °F 21.2 °F 7.9 °F 36% 30.10 in 10.0 mi WNW 18.4 mph 26.5 mph N/A   Overcast
4:12 PM 32.0 °F 21.6 °F 8.1 °F 37% 30.09 in 10.0 mi NW 15.0 mph - N/A   Mostly Cloudy
4:32 PM 32.0 °F 19.5 °F 6.6 °F 34% 30.09 in 10.0 mi NW 21.9 mph 27.6 mph N/A   Mostly Cloudy
4:51 PM 32.5 °F 21.2 °F 7.7 °F 35% 30.09 in 10.0 mi NW 18.4 mph 24.2 mph N/A   Mostly Cloudy
5:12 PM 30.4 °F 19.1 °F 10.4 °F 43% 30.09 in 10.0 mi NNW 16.1 mph 25.3 mph N/A   Overcast
5:31 PM 30.7 °F 20.4 °F 7.7 °F 38% 30.09 in 10.0 mi NNW 13.8 mph 21.9 mph N/A   Overcast
5:52 PM 30.2 °F 18.1 °F 8.4 °F 40% 30.09 in 10.0 mi NNW 18.4 mph 23.0 mph N/A   Mostly Cloudy
6:12 PM 29.7 °F 18.2 °F 10.6 °F 45% 30.09 in 10.0 mi NNW 16.1 mph 21.9 mph N/A   Scattered Clouds
6:31 PM 30.0 °F 19.1 °F 7.2 °F 38% 30.10 in 10.0 mi NW 15.0 mph 23.0 mph N/A   Clear
6:52 PM 29.1 °F 17.1 °F 8.1 °F 41% 30.10 in 10.0 mi NW 17.3 mph 21.9 mph N/A   Clear
7:12 PM 29.1 °F 18.4 °F 7.5 °F 40% 30.10 in 10.0 mi NW 13.8 mph 23.0 mph N/A   Clear
7:32 PM 28.4 °F 18.0 °F 11.1 °F 48% 30.11 in 10.0 mi NNW 12.7 mph 17.3 mph N/A   Scattered Clouds
7:52 PM 27.9 °F 17.8 °F 10.6 °F 48% 30.11 in 10.0 mi NNW 11.5 mph 23.0 mph N/A   Clear
8:12 PM 27.0 °F 16.7 °F 11.7 °F 53% 30.12 in 10.0 mi NW 11.5 mph 18.4 mph N/A   Clear
8:32 PM 26.1 °F 15.0 °F 12.9 °F 58% 30.13 in 10.0 mi NW 12.7 mph 19.6 mph N/A   Clear
8:52 PM 25.7 °F 15.1 °F 11.8 °F 56% 30.13 in 10.0 mi NNW 11.5 mph 17.3 mph N/A   Clear
9:11 PM 25.2 °F 12.9 °F 10.2 °F 53% 30.14 in 10.0 mi NNW 15.0 mph 19.6 mph N/A   Clear
9:32 PM 24.6 °F 12.7 °F 9.9 °F 54% 30.14 in 10.0 mi NW 13.8 mph 20.7 mph N/A   Clear
9:52 PM 23.9 °F 11.7 °F 9.5 °F 54% 30.15 in 10.0 mi NW 13.8 mph 18.4 mph N/A   Clear
10:12 PM 23.5 °F 11.8 °F 9.7 °F 56% 30.15 in 10.0 mi NW 12.7 mph 18.4 mph N/A   Clear
10:32 PM 23.0 °F 10.6 °F 8.4 °F 54% 30.15 in 10.0 mi NNW 13.8 mph 18.4 mph N/A   Clear
10:52 PM 22.6 °F 10.7 °F 8.2 °F 54% 30.15 in 10.0 mi NNW 12.7 mph 18.4 mph N/A   Clear
11:12 PM 22.1 °F 11.3 °F 9.1 °F 58% 30.15 in 10.0 mi NW 10.4 mph 18.4 mph N/A   Clear
11:31 PM 21.7 °F 10.2 °F 8.6 °F 57% 30.15 in 10.0 mi NW 11.5 mph 17.3 mph N/A   Clear
11:52 PM 21.2 °F 10.9 °F 8.6 °F 58% 30.15 in 10.0 mi NNW 9.2 mph 13.8 mph N/A   Clear